| time (UTC) | temp C | wind direction | speed KPH | gust KPH | rain 1hr cm | rain 24hr cm | rain mn cm | humidity % | barometer mb |
| 20260505153310 | 15 | 135 | 1.6 | 3.2 | 0.00 | 0.00 | 0.00 | 55 | 989.0 |
| 20260505151309 | 15 | 135 | 3.2 | 6.4 | 0.00 | 0.00 | 0.00 | 54 | 989.0 |
| 20260505123309 | 18 | 135 | 3.2 | 4.8 | 0.00 | 0.00 | 0.00 | 44 | 990.0 |
| 20260505121307 | 20 | 157 | 3.2 | 4.8 | 0.00 | 0.00 | 0.00 | 44 | 989.0 |
| 20260505115308 | 20 | 157 | 4.8 | 8.0 | 0.00 | 0.00 | 0.00 | 44 | 989.0 |
| 20260505113308 | 20 | 157 | 4.8 | 8.0 | 0.00 | 0.00 | 0.00 | 42 | 989.0 |
| 20260505111309 | 20 | 112 | 4.8 | 9.7 | 0.00 | 0.00 | 0.00 | 42 | 989.0 |
| 20260505101308 | 20 | 135 | 6.4 | 12.9 | 0.00 | 0.00 | 0.00 | 38 | 989.0 |
| 20260505095308 | 21 | 135 | 6.4 | 9.7 | 0.00 | 0.00 | 0.00 | 38 | 990.0 |
| 20260505093308 | 21 | 112 | 1.6 | 4.8 | 0.00 | 0.00 | 0.00 | 36 | 989.0 |
| 20260505085309 | 21 | 112 | 3.2 | 8.0 | 0.00 | 0.00 | 0.00 | 38 | 990.0 |
| 20260505083310 | 20 | 67 | 0.0 | 4.8 | 0.00 | 0.00 | 0.00 | 36 | 990.0 |
| 20260505081309 | 20 | 112 | 1.6 | 4.8 | 0.00 | 0.00 | 0.00 | 36 | 990.0 |
| 20260505075309 | 20 | 67 | 1.6 | 9.7 | 0.00 | 0.00 | 0.00 | 36 | 991.0 |
| 20260505073308 | 20 | 67 | 0.0 | 3.2 | 0.00 | 0.00 | 0.00 | 38 | 991.0 |
| 20260505071308 | 20 | 45 | 0.0 | 3.2 | 0.00 | 0.00 | 0.00 | 37 | 990.0 |
| 20260505065308 | 18 | 45 | 0.0 | 3.2 | 0.00 | 0.00 | 0.00 | 39 | 990.0 |
| 20260505063308 | 17 | 45 | 0.0 | 1.6 | 0.00 | 0.00 | 0.00 | 41 | 990.0 |
| 20260505061309 | 16 | 315 | 0.0 | 0.0 | 0.00 | 0.00 | 0.00 | 44 | 990.0 |
| 20260505055309 | 16 | 315 | 0.0 | 1.6 | 0.00 | 0.00 | 0.00 | 48 | 990.0 |
| 20260505053309 | 15 | 337 | 0.0 | 1.6 | 0.00 | 0.00 | 0.00 | 50 | 990.0 |
| 20260505051308 | 13 | 337 | 0.0 | 3.2 | 0.00 | 0.00 | 0.00 | 52 | 990.0 |
| 20260505041309 | 11 | 337 | 1.6 | 1.6 | 0.00 | 0.00 | 0.00 | 55 | 990.0 |
| 20260505035309 | 10 | 337 | 1.6 | 3.2 | 0.00 | 0.00 | 0.00 | 54 | 989.0 |
| 20260505033310 | 10 | 337 | 1.6 | 3.2 | 0.00 | 0.00 | 0.00 | 56 | 990.0 |
| 20260505031309 | 8 | 315 | 1.6 | 3.2 | 0.00 | 0.00 | 0.00 | 59 | 990.0 |
| 20260505025309 | 7 | 315 | 0.0 | 1.6 | 0.00 | 0.00 | 0.00 | 60 | 990.0 |
| 20260505023308 | 7 | 315 | 0.0 | 3.2 | 0.00 | 0.00 | 0.00 | 59 | 990.0 |
| 20260505021309 | 8 | 315 | 0.0 | 1.6 | 0.00 | 0.00 | 0.00 | 59 | 990.0 |
| 20260505015309 | 8 | 315 | 0.0 | 1.6 | 0.00 | 0.00 | 0.00 | 59 | 990.0 |
| 20260505013309 | 8 | 315 | 1.6 | 3.2 | 0.00 | 0.00 | 0.00 | 58 | 990.0 |
| 20260505011308 | 7 | 315 | 0.0 | 1.6 | 0.00 | 0.00 | 0.00 | 60 | 990.0 |
| 20260505005308 | 7 | 337 | 0.0 | 3.2 | 0.00 | 0.00 | 0.00 | 61 | 990.0 |
| 20260505003310 | 7 | 315 | 0.0 | 1.6 | 0.00 | 0.00 | 0.00 | 61 | 990.0 |
| 20260505001308 | 6 | 315 | 0.0 | 1.6 | 0.00 | 0.00 | 0.00 | 62 | 990.0 |
| 20260504235310 | 7 | 315 | 0.0 | 0.0 | 0.00 | 0.00 | 0.00 | 60 | 990.0 |
| 20260504233309 | 7 | 315 | 0.0 | 1.6 | 0.00 | 0.00 | 0.00 | 60 | 990.0 |
| 20260504231309 | 7 | 315 | 0.0 | 0.0 | 0.00 | 0.00 | 0.00 | 57 | 991.0 |
| 20260504225309 | 8 | 315 | 0.0 | 1.6 | 0.00 | 0.00 | 0.00 | 58 | 990.0 |
| 20260504223309 | 8 | 315 | 0.0 | 0.0 | 0.00 | 0.00 | 0.00 | 57 | 990.0 |
| 20260504221309 | 8 | 315 | 0.0 | 3.2 | 0.00 | 0.00 | 0.00 | 58 | 990.0 |
| 20260504215309 | 8 | 337 | 0.0 | 1.6 | 0.00 | 0.00 | 0.00 | 58 | 990.0 |
| 20260504213309 | 8 | 337 | 1.6 | 3.2 | 0.00 | 0.00 | 0.00 | 57 | 990.0 |
| 20260504211309 | 8 | 337 | 0.0 | 1.6 | 0.00 | 0.00 | 0.00 | 57 | 990.0 |
| 20260504205308 | 8 | 337 | 0.0 | 1.6 | 0.00 | 0.00 | 0.00 | 59 | 990.0 |
| 20260504203310 | 8 | 337 | 0.0 | 3.2 | 0.00 | 0.00 | 0.00 | 58 | 990.0 |
| 20260504201309 | 8 | 337 | 0.0 | 1.6 | 0.00 | 0.00 | 0.00 | 57 | 990.0 |
| 20260504195309 | 10 | 337 | 0.0 | 0.0 | 0.00 | 0.00 | 0.00 | 54 | 990.0 |
| 20260504193309 | 10 | 67 | 0.0 | 0.0 | 0.00 | 0.00 | 0.00 | 55 | 990.0 |
| 20260504191309 | 10 | 67 | 0.0 | 0.0 | 0.00 | 0.00 | 0.00 | 55 | 990.0 |
| 20260504185309 | 10 | 67 | 0.0 | 0.0 | 0.00 | 0.00 | 0.00 | 56 | 990.0 |
| 20260504183309 | 10 | 67 | 0.0 | 0.0 | 0.00 | 0.00 | 0.00 | 56 | 991.0 |
| 20260504181309 | 10 | 67 | 0.0 | 0.0 | 0.00 | 0.00 | 0.00 | 55 | 990.0 |
| 20260504175308 | 10 | 67 | 0.0 | 0.0 | 0.00 | 0.00 | 0.00 | 54 | 990.0 |
| 20260504173308 | 10 | 67 | 0.0 | 0.0 | 0.00 | 0.00 | 0.00 | 55 | 991.0 |
| 20260504171309 | 11 | 67 | 0.0 | 0.0 | 0.00 | 0.00 | 0.00 | 55 | 990.0 |